Precipitable_Water
1.28 1.23 1.26 1.28 1.29 1.26 1.26 1.29 1.32 1.34 1.33 1.35 1.34 1.35 1.44 1.51 1.54 1.61 1.69 1.68 1.68 1.64 1.62 1.61 1.61 1.58 1.56 1.53 1.49 1.47 1.46 1.48 1.49 1.47 1.50 1.55 1.56 1.51 1.52 1.55 1.51 1.56 1.61 1.54 1.49 1.44 1.44 1.47 1.52 1.57 1.61 1.53 1.53 1.56 1.55 1.54 1.55 1.52 1.47 1.39 1.28 1.28 1.23 1.17 1.09 1.07 1.18 1.34 1.34 1.35 1.43 1.43 1.37 1.47 1.43 1.47 1.47 1.52 1.55 1.55 1.54 1.50 1.46 1.40 1.36
1.35 1.32 1.30 1.27 1.22 1.23 1.25 1.29 1.32 1.35 1.32 1.32 1.30 1.33 1.34 1.40 1.48 1.54 1.56 1.62 1.67 1.64 1.61 1.59 1.55 1.48 1.42 1.41 1.42 1.43 1.44 1.45 1.46 1.44 1.41 1.41 1.48 1.51 1.49 1.55 1.55 1.51 1.56 1.51 1.49 1.46 1.46 1.47 1.50 1.56 1.63 1.58 1.56 1.51 1.52 1.53 1.53 1.50 1.49 1.39 1.28 1.22 1.27 1.14 1.13 1.11 1.05 1.22 1.24 1.35 1.34 1.42 1.25 1.39 1.31 1.28 1.31 1.40 1.38 1.36 1.37 1.35 1.28 1.27 1.30
1.56 1.45 1.34 1.31 1.27 1.24 1.24 1.25 1.28 1.28 1.27 1.27 1.26 1.28 1.31 1.35 1.43 1.44 1.46 1.52 1.62 1.64 1.63 1.60 1.56 1.51 1.42 1.37 1.35 1.35 1.37 1.41 1.44 1.43 1.40 1.38 1.38 1.41 1.43 1.48 1.50 1.49 1.52 1.53 1.49 1.48 1.44 1.45 1.48 1.54 1.58 1.55 1.57 1.57 1.57 1.54 1.55 1.51 1.50 1.52 1.41 1.30 1.26 1.21 1.10 1.02 1.04 1.09 1.24 1.20 1.23 1.29 1.24 1.20 1.21 1.22 1.24 1.26 1.19 1.15 1.15 1.20 1.27 1.33 1.33
1.79 1.69 1.50 1.41 1.37 1.31 1.25 1.25 1.26 1.27 1.25 1.24 1.23 1.24 1.29 1.32 1.37 1.38 1.41 1.45 1.49 1.58 1.61 1.60 1.58 1.53 1.47 1.42 1.37 1.32 1.31 1.34 1.38 1.41 1.40 1.40 1.39 1.37 1.39 1.39 1.42 1.47 1.51 1.51 1.49 1.45 1.41 1.40 1.43 1.51 1.57 1.54 1.51 1.50 1.52 1.53 1.52 1.50 1.49 1.52 1.51 1.44 1.39 1.34 1.29 1.14 1.08 0.98 1.04 1.05 1.12 1.11 1.15 1.21 1.24 1.25 1.21 1.15 1.16 1.19 1.25 1.25 1.28 1.31 1.34
1.93 1.87 1.82 1.69 1.61 1.47 1.32 1.25 1.25 1.29 1.29 1.30 1.25 1.24 1.27 1.30 1.34 1.33 1.36 1.36 1.41 1.46 1.51 1.54 1.51 1.50 1.45 1.42 1.40 1.35 1.30 1.29 1.29 1.34 1.39 1.41 1.40 1.39 1.38 1.37 1.36 1.36 1.41 1.44 1.45 1.42 1.39 1.36 1.39 1.46 1.56 1.56 1.54 1.47 1.45 1.43 1.48 1.47 1.43 1.47 1.47 1.51 1.50 1.47 1.42 1.38 1.24 1.12 1.12 1.20 1.27 1.25 1.25 1.23 1.30 1.22 1.17 1.15 1.19 1.20 1.22 1.21 1.21 1.29 1.36
2.11 2.03 1.98 1.89 1.88 1.87 1.71 1.42 1.22 1.24 1.37 1.41 1.33 1.32 1.31 1.33 1.34 1.35 1.36 1.33 1.35 1.40 1.41 1.44 1.44 1.42 1.41 1.40 1.38 1.36 1.32 1.28 1.27 1.29 1.33 1.38 1.39 1.39 1.38 1.38 1.36 1.34 1.32 1.36 1.40 1.42 1.38 1.38 1.39 1.41 1.42 1.42 1.42 1.44 1.45 1.44 1.45 1.42 1.40 1.41 1.44 1.45 1.44 1.44 1.44 1.41 1.35 1.28 1.25 1.20 1.26 1.22 1.21 1.23 1.29 1.28 1.18 1.08 1.03 1.06 1.12 1.15 1.18 1.18 1.24
2.10 2.12 2.08 2.01 1.94 1.93 1.93 1.81 1.50 1.22 1.19 1.32 1.45 1.41 1.33 1.35 1.36 1.34 1.35 1.33 1.32 1.34 1.37 1.38 1.40 1.39 1.41 1.40 1.36 1.33 1.31 1.28 1.26 1.26 1.28 1.31 1.32 1.33 1.33 1.33 1.33 1.35 1.34 1.34 1.37 1.41 1.42 1.41 1.39 1.38 1.36 1.38 1.38 1.40 1.42 1.43 1.42 1.40 1.41 1.39 1.42 1.40 1.38 1.38 1.39 1.36 1.33 1.27 1.26 1.25 1.20 1.26 1.25 1.11 1.20 1.28 1.21 1.14 1.03 1.00 0.98 1.05 1.11 1.14 1.15
2.20 2.14 2.12 2.06 2.02 2.02 2.02 2.01 1.87 1.58 1.36 1.31 1.27 1.34 1.38 1.33 1.33 1.34 1.35 1.32 1.29 1.27 1.29 1.30 1.32 1.34 1.34 1.35 1.35 1.36 1.33 1.28 1.25 1.24 1.22 1.21 1.21 1.22 1.23 1.22 1.24 1.28 1.31 1.34 1.35 1.36 1.38 1.41 1.41 1.40 1.37 1.38 1.39 1.41 1.44 1.41 1.43 1.40 1.42 1.41 1.37 1.33 1.30 1.31 1.31 1.29 1.25 1.23 1.17 1.13 1.16 1.11 1.12 1.18 1.21 1.19 1.08 1.06 1.12 1.09 0.94 0.91 0.94 1.07 1.16
2.12 2.12 2.12 2.07 2.06 2.05 2.07 2.06 2.01 1.96 1.84 1.64 1.53 1.41 1.39 1.40 1.36 1.34 1.31 1.29 1.29 1.28 1.27 1.26 1.27 1.26 1.25 1.26 1.27 1.31 1.30 1.26 1.23 1.19 1.15 1.13 1.12 1.09 1.10 1.11 1.12 1.15 1.19 1.23 1.28 1.31 1.33 1.35 1.37 1.37 1.37 1.36 1.38 1.40 1.41 1.43 1.39 1.33 1.34 1.35 1.30 1.26 1.23 1.21 1.18 1.14 1.12 1.10 1.08 1.13 1.10 1.06 1.05 1.03 0.98 0.96 0.92 0.87 0.95 1.04 0.98 0.98 1.02 1.02 1.04
2.14 2.12 2.10 2.08 2.06 2.07 2.09 2.10 2.05 2.04 1.97 1.82 1.74 1.80 1.70 1.54 1.46 1.36 1.31 1.30 1.29 1.29 1.26 1.25 1.26 1.25 1.25 1.24 1.22 1.23 1.22 1.23 1.20 1.17 1.15 1.10 1.07 1.05 1.04 1.04 1.04 1.06 1.08 1.11 1.16 1.21 1.24 1.26 1.27 1.27 1.27 1.25 1.26 1.27 1.30 1.34 1.38 1.37 1.33 1.33 1.30 1.27 1.23 1.19 1.14 1.11 1.07 1.02 0.99 0.98 0.94 0.91 0.91 0.92 0.90 0.91 0.95 0.99 0.96 0.95 0.89 0.89 0.93 0.89 0.95
2.19 2.18 2.15 2.16 2.16 2.15 2.13 2.09 2.06 1.99 1.95 1.91 1.88 1.83 1.83 1.90 1.74 1.59 1.50 1.43 1.39 1.37 1.35 1.28 1.23 1.24 1.29 1.28 1.24 1.22 1.20 1.19 1.18 1.17 1.15 1.13 1.10 1.05 1.01 0.99 1.01 1.01 1.02 1.02 1.01 1.06 1.11 1.16 1.16 1.16 1.18 1.18 1.19 1.20 1.22 1.26 1.30 1.34 1.36 1.36 1.35 1.30 1.23 1.18 1.13 1.10 1.05 1.00 0.99 0.98 0.93 0.87 0.87 0.90 0.91 0.90 0.92 0.90 0.88 0.88 0.87 0.86 0.81 0.76 0.68
2.08 2.13 2.16 2.19 2.20 2.20 2.18 2.16 2.10 2.05 2.03 2.02 2.02 1.99 2.00 2.05 1.97 1.84 1.72 1.60 1.56 1.52 1.41 1.37 1.34 1.29 1.26 1.30 1.33 1.31 1.28 1.26 1.23 1.21 1.20 1.19 1.19 1.15 1.12 1.06 1.01 0.98 0.98 0.98 0.99 1.00 1.01 1.03 1.06 1.08 1.08 1.06 1.05 1.07 1.09 1.12 1.15 1.20 1.23 1.26 1.26 1.28 1.28 1.19 1.10 1.06 1.06 1.01 0.98 0.96 0.94 0.90 0.88 0.92 0.90 0.90 0.87 0.90 0.91 0.91 0.88 0.84 0.81 0.78 0.78
1.98 2.03 2.10 2.13 2.15 2.17 2.16 2.14 2.14 2.15 2.15 2.17 2.19 2.13 2.06 2.03 2.01 1.96 1.87 1.85 1.76 1.64 1.58 1.51 1.44 1.42 1.35 1.27 1.26 1.34 1.37 1.36 1.31 1.26 1.23 1.23 1.24 1.25 1.21 1.18 1.12 1.06 1.01 0.98 0.97 0.98 0.99 0.98 0.98 1.00 1.00 1.01 1.03 1.03 1.01 1.01 1.05 1.09 1.11 1.13 1.16 1.17 1.16 1.19 1.22 1.17 1.12 1.07 1.00 0.97 0.96 0.94 0.91 0.90 0.94 0.93 0.99 0.91 0.89 0.88 0.89 0.91 0.91 0.87 0.83
1.89 1.91 1.97 2.03 2.10 2.12 2.13 2.12 2.13 2.17 2.22 2.21 2.19 2.16 2.10 2.02 2.04 2.07 2.06 2.01 1.91 1.80 1.70 1.63 1.61 1.55 1.49 1.42 1.33 1.31 1.32 1.37 1.38 1.35 1.31 1.27 1.27 1.29 1.30 1.27 1.24 1.19 1.15 1.10 1.04 0.98 0.96 0.95 0.94 0.92 0.95 0.96 0.97 0.98 0.99 0.98 0.98 1.00 1.01 1.02 1.00 1.01 1.06 1.10 1.13 1.18 1.22 1.16 1.09 0.98 0.99 1.05 0.94 0.92 0.98 1.04 0.98 0.90 0.88 0.85 0.92 0.96 0.95 0.93 1.02
1.74 1.80 1.85 1.93 1.99 2.03 2.04 2.06 2.07 2.12 2.14 2.15 2.15 2.13 2.10 2.07 2.02 2.04 2.07 2.03 1.96 1.91 1.85 1.74 1.68 1.67 1.65 1.60 1.48 1.36 1.33 1.34 1.34 1.35 1.36 1.35 1.32 1.29 1.29 1.30 1.27 1.24 1.21 1.19 1.15 1.09 1.02 0.97 0.93 0.90 0.90 0.92 0.93 0.94 0.94 0.94 0.95 0.95 0.96 0.96 0.95 0.94 0.96 0.99 1.03 1.05 1.09 1.12 1.11 1.06 1.03 1.06 1.03 1.01 1.03 1.07 1.05 1.01 1.00 1.00 1.07 1.09 1.10 1.15 1.14
1.52 1.60 1.67 1.76 1.83 1.90 1.94 1.97 1.99 2.04 2.06 2.06 2.05 2.06 2.09 2.08 2.03 2.05 2.06 2.05 2.02 1.99 1.97 1.92 1.83 1.78 1.76 1.69 1.57 1.45 1.41 1.36 1.32 1.33 1.35 1.37 1.38 1.36 1.30 1.25 1.22 1.20 1.19 1.19 1.19 1.17 1.14 1.10 1.03 0.97 0.91 0.87 0.87 0.89 0.91 0.93 0.91 0.88 0.86 0.85 0.84 0.84 0.85 0.88 0.91 0.94 0.95 0.95 0.94 0.93 0.94 0.98 1.01 1.02 1.03 1.04 1.04 1.04 1.06 1.09 1.12 1.08 1.03 0.97 0.90
1.34 1.41 1.49 1.57 1.63 1.74 1.82 1.85 1.88 1.92 1.98 2.01 2.00 2.03 2.05 2.06 2.08 2.12 2.07 2.06 2.02 2.02 2.00 1.99 1.99 1.94 1.88 1.83 1.71 1.63 1.59 1.57 1.52 1.45 1.43 1.44 1.42 1.37 1.32 1.27 1.22 1.18 1.16 1.18 1.19 1.19 1.18 1.16 1.12 1.07 1.04 1.01 0.99 0.97 0.95 0.94 0.90 0.86 0.83 0.81 0.81 0.83 0.84 0.91 0.97 0.99 0.99 0.99 0.99 0.99 1.00 1.02 1.04 1.07 1.09 1.10 1.09 1.10 1.07 0.96 0.85 0.89 0.88 0.83 0.83
1.17 1.23 1.30 1.37 1.44 1.53 1.65 1.77 1.82 1.85 1.87 1.90 1.98 2.02 2.07 2.08 2.07 2.12 2.08 2.06 2.04 2.07 2.11 2.09 2.08 2.06 1.99 1.93 1.87 1.74 1.71 1.76 1.75 1.71 1.59 1.45 1.40 1.35 1.33 1.30 1.25 1.22 1.19 1.20 1.20 1.20 1.19 1.18 1.18 1.15 1.12 1.11 1.12 1.12 1.12 1.12 1.05 1.00 0.95 0.90 0.86 0.84 0.87 0.96 1.01 1.03 1.07 1.09 1.12 1.15 1.17 1.17 1.17 1.18 1.18 1.16 1.16 1.19 1.09 0.91 0.90 0.93 0.84 0.80 0.73
1.07 1.07 1.14 1.22 1.26 1.34 1.41 1.51 1.62 1.73 1.79 1.85 1.92 1.89 1.90 1.96 2.04 2.10 2.11 2.12 2.11 2.13 2.15 2.13 2.13 2.13 2.09 2.03 1.97 1.87 1.85 1.89 1.85 1.78 1.75 1.73 1.60 1.48 1.41 1.36 1.30 1.28 1.27 1.25 1.27 1.25 1.23 1.22 1.21 1.22 1.20 1.18 1.18 1.18 1.18 1.20 1.15 1.10 1.07 1.03 0.96 0.93 0.97 1.07 1.08 1.08 1.14 1.18 1.20 1.24 1.24 1.25 1.26 1.24 1.22 1.21 1.20 1.21 1.17 1.07 1.04 0.95 0.83 0.80 0.79
1.00 1.02 1.07 1.12 1.14 1.16 1.17 1.19 1.32 1.44 1.52 1.66 1.82 1.79 1.75 1.82 1.93 2.01 2.06 2.12 2.13 2.15 2.17 2.16 2.13 2.14 2.16 2.12 2.05 2.00 1.96 1.94 1.94 1.92 1.87 1.82 1.79 1.75 1.68 1.57 1.46 1.43 1.43 1.41 1.36 1.37 1.36 1.33 1.33 1.32 1.31 1.30 1.27 1.26 1.24 1.26 1.22 1.19 1.17 1.10 1.02 0.97 1.10 1.18 1.19 1.19 1.18 1.18 1.17 1.21 1.21 1.25 1.26 1.26 1.23 1.21 1.19 1.19 1.16 1.13 1.09 1.03 0.92 0.84 0.82
0.94 0.93 0.96 1.03 1.06 1.06 1.08 1.06 1.11 1.27 1.39 1.48 1.62 1.60 1.65 1.75 1.83 1.92 1.98 2.06 2.12 2.13 2.12 2.12 2.12 2.12 2.15 2.16 2.13 2.12 2.10 2.02 2.01 2.00 1.97 1.92 1.89 1.84 1.77 1.71 1.68 1.65 1.61 1.59 1.56 1.50 1.48 1.47 1.47 1.47 1.46 1.44 1.42 1.38 1.34 1.32 1.31 1.28 1.25 1.18 1.15 1.16 1.23 1.21 1.21 1.27 1.26 1.25 1.24 1.24 1.24 1.24 1.23 1.23 1.22 1.21 1.20 1.21 1.22 1.21 1.20 1.17 1.08 0.96 0.88
0.86 0.84 0.89 0.96 1.01 1.02 1.02 0.98 0.97 1.08 1.21 1.29 1.34 1.37 1.48 1.62 1.73 1.84 1.95 2.01 2.03 2.02 2.02 2.01 2.02 2.04 2.10 2.13 2.13 2.13 2.17 2.15 2.10 2.08 2.05 2.02 1.96 1.91 1.84 1.81 1.84 1.82 1.75 1.70 1.68 1.65 1.64 1.64 1.64 1.66 1.66 1.63 1.59 1.54 1.50 1.45 1.41 1.37 1.30 1.29 1.29 1.29 1.28 1.32 1.34 1.33 1.31 1.28 1.27 1.26 1.26 1.24 1.22 1.21 1.22 1.24 1.25 1.29 1.31 1.32 1.32 1.30 1.27 1.20 1.10
0.76 0.77 0.81 0.81 0.85 0.91 0.96 0.93 0.87 0.93 1.01 1.10 1.17 1.22 1.32 1.42 1.54 1.64 1.68 1.74 1.81 1.86 1.90 1.92 1.92 1.92 1.96 2.02 2.08 2.11 2.12 2.13 2.13 2.11 2.12 2.12 2.09 2.03 1.97 1.92 1.91 1.89 1.83 1.77 1.79 1.82 1.85 1.83 1.83 1.83 1.81 1.76 1.73 1.70 1.65 1.60 1.55 1.48 1.44 1.44 1.43 1.42 1.43 1.41 1.40 1.38 1.35 1.34 1.33 1.29 1.27 1.27 1.24 1.23 1.26 1.27 1.33 1.42 1.44 1.45 1.44 1.41 1.36 1.32 1.29
0.68 0.68 0.72 0.74 0.75 0.77 0.80 0.84 0.85 0.83 0.89 1.00 1.08 1.14 1.19 1.25 1.37 1.44 1.48 1.49 1.53 1.61 1.72 1.79 1.81 1.81 1.83 1.89 1.96 2.02 2.06 2.09 2.16 2.20 2.22 2.22 2.20 2.17 2.12 2.08 2.03 1.96 1.93 1.89 1.92 1.95 1.94 1.94 1.94 1.94 1.92 1.89 1.87 1.82 1.77 1.73 1.66 1.62 1.61 1.58 1.57 1.57 1.54 1.49 1.47 1.45 1.45 1.42 1.36 1.32 1.30 1.34 1.36 1.32 1.30 1.38 1.45 1.50 1.52 1.52 1.51 1.51 1.47 1.40 1.36
0.62 0.62 0.62 0.65 0.66 0.68 0.69 0.71 0.75 0.73 0.82 0.92 0.96 1.01 1.06 1.14 1.17 1.25 1.28 1.29 1.29 1.31 1.40 1.51 1.57 1.63 1.70 1.76 1.85 1.93 2.00 2.04 2.05 2.11 2.20 2.24 2.25 2.23 2.20 2.16 2.13 2.07 1.99 1.99 2.00 1.99 2.01 2.00 1.98 1.97 1.95 1.93 1.91 1.89 1.87 1.86 1.85 1.80 1.78 1.75 1.71 1.65 1.59 1.55 1.53 1.54 1.50 1.46 1.46 1.46 1.42 1.40 1.41 1.45 1.51 1.55 1.57 1.57 1.53 1.52 1.57 1.57 1.56 1.54 1.47
0.55 0.57 0.57 0.56 0.56 0.61 0.62 0.64 0.67 0.69 0.75 0.83 0.88 0.93 0.94 0.97 0.98 1.04 1.10 1.13 1.16 1.18 1.22 1.28 1.33 1.40 1.44 1.54 1.66 1.80 1.91 1.97 2.02 2.06 2.14 2.22 2.21 2.19 2.17 2.17 2.16 2.14 2.10 2.08 2.08 2.07 2.06 2.04 2.03 2.03 2.02 2.01 1.98 1.91 1.85 1.84 1.89 1.90 1.89 1.87 1.79 1.71 1.67 1.65 1.61 1.53 1.45 1.44 1.46 1.47 1.52 1.58 1.56 1.59 1.64 1.63 1.55 1.48 1.50 1.48 1.47 1.44 1.46 1.43 1.37
0.50 0.50 0.50 0.51 0.51 0.55 0.58 0.62 0.66 0.67 0.69 0.72 0.77 0.80 0.84 0.84 0.84 0.86 0.89 0.94 1.01 1.09 1.13 1.16 1.20 1.25 1.29 1.35 1.44 1.55 1.67 1.78 1.87 1.97 2.06 2.07 2.09 2.12 2.13 2.10 2.11 2.10 2.09 2.10 2.10 2.09 2.10 2.10 2.09 2.08 2.06 2.06 2.04 2.02 1.97 1.95 1.90 1.86 1.88 1.89 1.88 1.83 1.78 1.74 1.70 1.65 1.58 1.52 1.52 1.60 1.67 1.69 1.73 1.68 1.58 1.58 1.55 1.54 1.57 1.53 1.49 1.44 1.47 1.48 1.40
0.46 0.46 0.47 0.48 0.48 0.51 0.55 0.60 0.61 0.64 0.65 0.64 0.63 0.64 0.69 0.74 0.73 0.73 0.75 0.81 0.86 0.92 1.00 1.06 1.10 1.15 1.19 1.25 1.29 1.34 1.41 1.51 1.62 1.73 1.82 1.89 1.94 2.01 2.05 2.06 2.04 2.04 2.05 2.07 2.09 2.10 2.08 2.09 2.09 2.09 2.08 2.06 2.05 2.05 2.04 2.03 1.99 1.93 1.90 1.91 1.90 1.89 1.88 1.87 1.85 1.79 1.71 1.67 1.66 1.74 1.76 1.75 1.69 1.65 1.63 1.59 1.55 1.53 1.56 1.55 1.49 1.45 1.48 1.49 1.37
0.46 0.45 0.45 0.46 0.45 0.51 0.56 0.59 0.59 0.58 0.59 0.63 0.64 0.63 0.62 0.62 0.61 0.64 0.72 0.80 0.87 0.88 0.90 0.95 1.03 1.10 1.15 1.19 1.20 1.22 1.28 1.35 1.47 1.63 1.67 1.70 1.73 1.75 1.80 1.87 1.94 1.97 1.99 2.02 2.03 2.07 2.06 2.02 1.98 1.97 1.96 1.94 1.95 1.97 1.98 1.99 1.98 2.00 1.99 1.97 1.95 1.93 1.90 1.87 1.80 1.75 1.74 1.73 1.70 1.74 1.75 1.74 1.73 1.76 1.70 1.59 1.51 1.49 1.54 1.51 1.50 1.46 1.46 1.48 1.33
0.47 0.46 0.47 0.46 0.46 0.46 0.50 0.55 0.58 0.58 0.59 0.58 0.58 0.60 0.67 0.65 0.62 0.59 0.58 0.66 0.76 0.85 0.88 0.86 0.91 0.97 0.99 1.08 1.17 1.17 1.21 1.32 1.45 1.52 1.57 1.60 1.62 1.65 1.69 1.73 1.76 1.79 1.85 1.92 1.94 1.92 1.95 1.93 1.91 1.89 1.87 1.88 1.87 1.88 1.91 1.93 1.93 1.93 1.96 1.99 2.00 1.97 1.94 1.90 1.85 1.80 1.81 1.79 1.78 1.77 1.77 1.81 1.82 1.82 1.77 1.65 1.56 1.54 1.57 1.55 1.50 1.55 1.47 1.39 1.33
0.47 0.48 0.48 0.48 0.48 0.48 0.47 0.47 0.51 0.54 0.56 0.57 0.58 0.59 0.59 0.61 0.63 0.62 0.62 0.65 0.67 0.68 0.72 0.78 0.82 0.86 0.87 0.86 0.95 1.11 1.21 1.30 1.37 1.40 1.43 1.46 1.49 1.52 1.56 1.60 1.64 1.69 1.72 1.71 1.74 1.75 1.78 1.82 1.85 1.87 1.86 1.85 1.82 1.83 1.88 1.88 1.87 1.88 1.88 1.93 1.96 1.96 1.95 1.92 1.91 1.94 1.91 1.88 1.88 1.89 1.91 1.91 1.85 1.80 1.75 1.72 1.66 1.59 1.57 1.59 1.59 1.58 1.54 1.47 1.39
0.44 0.46 0.49 0.50 0.51 0.50 0.49 0.48 0.48 0.51 0.54 0.57 0.59 0.61 0.60 0.56 0.58 0.65 0.66 0.65 0.64 0.64 0.65 0.67 0.68 0.66 0.70 0.77 0.84 0.92 1.06 1.17 1.23 1.27 1.31 1.34 1.36 1.38 1.41 1.46 1.50 1.55 1.59 1.61 1.55 1.56 1.61 1.63 1.68 1.74 1.81 1.81 1.82 1.84 1.85 1.86 1.87 1.87 1.87 1.87 1.89 1.95 1.95 1.92 1.98 2.00 1.95 1.92 1.90 1.92 1.94 1.93 1.86 1.78 1.76 1.76 1.75 1.71 1.66 1.62 1.57 1.54 1.55 1.57 1.50
0.48 0.49 0.52 0.54 0.55 0.54 0.53 0.52 0.53 0.56 0.56 0.57 0.57 0.60 0.59 0.58 0.55 0.56 0.63 0.68 0.66 0.63 0.61 0.60 0.60 0.58 0.66 0.75 0.85 0.91 0.93 0.99 1.04 1.10 1.14 1.19 1.23 1.27 1.30 1.34 1.39 1.43 1.45 1.44 1.44 1.48 1.56 1.60 1.61 1.65 1.69 1.71 1.78 1.81 1.82 1.83 1.85 1.86 1.87 1.86 1.86 1.90 1.95 1.97 2.02 1.96 1.93 1.92 1.95 1.97 1.99 1.97 1.92 1.85 1.81 1.83 1.82 1.75 1.72 1.67 1.65 1.62 1.60 1.58 1.58
0.53 0.54 0.56 0.58 0.57 0.56 0.57 0.57 0.56 0.57 0.60 0.61 0.60 0.59 0.59 0.59 0.59 0.58 0.56 0.56 0.58 0.60 0.61 0.61 0.60 0.59 0.61 0.72 0.78 0.81 0.87 0.92 0.94 0.97 1.01 1.05 1.08 1.12 1.16 1.20 1.27 1.30 1.29 1.27 1.31 1.34 1.42 1.46 1.51 1.57 1.63 1.68 1.71 1.74 1.75 1.77 1.79 1.81 1.83 1.85 1.88 1.91 1.94 2.00 1.98 1.93 1.90 1.90 1.92 1.94 1.95 1.95 1.95 1.89 1.81 1.78 1.80 1.80 1.75 1.73 1.72 1.66 1.59 1.60 1.61
0.54 0.57 0.59 0.60 0.58 0.57 0.58 0.58 0.58 0.58 0.59 0.59 0.60 0.61 0.61 0.62 0.62 0.60 0.58 0.55 0.54 0.53 0.54 0.56 0.61 0.65 0.63 0.65 0.70 0.74 0.79 0.84 0.87 0.90 0.92 0.95 0.97 1.00 1.05 1.05 1.04 1.10 1.15 1.18 1.20 1.22 1.24 1.28 1.32 1.40 1.48 1.54 1.61 1.66 1.68 1.71 1.73 1.75 1.77 1.80 1.83 1.86 1.90 1.94 1.96 1.96 1.92 1.89 1.86 1.85 1.87 1.89 1.91 1.90 1.84 1.74 1.69 1.66 1.68 1.72 1.75 1.74 1.69 1.65 1.66
0.53 0.55 0.57 0.58 0.59 0.59 0.60 0.60 0.60 0.59 0.59 0.60 0.62 0.62 0.61 0.60 0.58 0.58 0.58 0.58 0.58 0.56 0.57 0.60 0.63 0.65 0.70 0.73 0.73 0.72 0.73 0.77 0.81 0.85 0.86 0.88 0.89 0.92 0.87 0.88 0.92 0.96 0.99 1.04 1.05 1.08 1.12 1.15 1.18 1.22 1.31 1.38 1.45 1.50 1.55 1.58 1.64 1.69 1.76 1.79 1.80 1.82 1.83 1.86 1.92 1.96 1.98 1.95 1.90 1.89 1.89 1.89 1.91 1.91 1.91 1.88 1.81 1.76 1.76 1.77 1.79 1.79 1.79 1.74 1.74
0.52 0.53 0.54 0.56 0.58 0.59 0.60 0.62 0.63 0.63 0.63 0.63 0.63 0.62 0.62 0.61 0.61 0.60 0.58 0.57 0.56 0.57 0.58 0.60 0.63 0.65 0.71 0.74 0.73 0.71 0.71 0.71 0.73 0.75 0.78 0.80 0.83 0.86 0.84 0.84 0.85 0.87 0.89 0.92 0.96 0.98 0.98 1.01 1.06 1.08 1.12 1.15 1.22 1.31 1.38 1.44 1.49 1.52 1.58 1.65 1.70 1.74 1.79 1.83 1.87 1.90 1.91 1.91 1.92 1.92 1.89 1.90 1.95 1.98 1.97 1.90 1.87 1.83 1.81 1.83 1.84 1.84 1.83 1.80 1.79
0.51 0.52 0.53 0.55 0.57 0.59 0.59 0.61 0.63 0.66 0.66 0.65 0.65 0.64 0.62 0.62 0.61 0.61 0.59 0.57 0.57 0.57 0.57 0.58 0.60 0.60 0.59 0.63 0.73 0.71 0.70 0.69 0.69 0.69 0.72 0.74 0.75 0.76 0.77 0.79 0.79 0.79 0.80 0.84 0.87 0.90 0.91 0.94 0.97 0.98 1.01 1.04 1.05 1.09 1.15 1.24 1.36 1.44 1.49 1.55 1.60 1.60 1.65 1.73 1.82 1.85 1.87 1.88 1.88 1.88 1.90 1.93 1.96 1.95 1.94 1.87 1.83 1.84 1.86 1.87 1.86 1.84 1.83 1.80 1.80
0.50 0.51 0.53 0.56 0.58 0.57 0.58 0.59 0.62 0.64 0.66 0.67 0.67 0.66 0.65 0.64 0.63 0.62 0.62 0.62 0.61 0.61 0.60 0.60 0.60 0.60 0.62 0.66 0.66 0.69 0.67 0.63 0.59 0.58 0.60 0.63 0.67 0.69 0.70 0.72 0.72 0.73 0.74 0.76 0.79 0.82 0.84 0.86 0.90 0.94 0.95 0.97 0.99 1.01 1.03 1.07 1.15 1.23 1.34 1.42 1.47 1.53 1.56 1.59 1.66 1.73 1.77 1.79 1.81 1.86 1.89 1.89 1.90 1.89 1.88 1.84 1.81 1.83 1.85 1.86 1.84 1.83 1.80 1.77 1.78
0.46 0.48 0.51 0.54 0.57 0.59 0.60 0.61 0.63 0.64 0.65 0.65 0.65 0.66 0.66 0.65 0.64 0.64 0.64 0.63 0.62 0.63 0.63 0.62 0.62 0.63 0.67 0.69 0.67 0.66 0.59 0.56 0.56 0.56 0.56 0.57 0.59 0.62 0.65 0.65 0.67 0.68 0.67 0.69 0.72 0.75 0.78 0.81 0.86 0.89 0.91 0.94 0.96 0.96 0.98 1.00 1.02 1.08 1.14 1.21 1.27 1.33 1.41 1.48 1.52 1.55 1.59 1.64 1.68 1.72 1.74 1.76 1.81 1.85 1.84 1.79 1.75 1.76 1.78 1.81 1.84 1.87 1.85 1.81 1.81
0.45 0.46 0.48 0.50 0.52 0.54 0.57 0.59 0.61 0.62 0.64 0.65 0.66 0.66 0.66 0.67 0.67 0.67 0.65 0.64 0.64 0.63 0.63 0.64 0.65 0.68 0.70 0.71 0.71 0.69 0.65 0.61 0.59 0.57 0.56 0.56 0.58 0.60 0.61 0.63 0.65 0.65 0.66 0.66 0.68 0.71 0.73 0.76 0.80 0.84 0.87 0.91 0.94 0.95 0.96 0.97 0.99 1.01 1.04 1.09 1.15 1.21 1.29 1.37 1.42 1.46 1.50 1.54 1.58 1.61 1.65 1.70 1.72 1.72 1.69 1.72 1.74 1.74 1.78 1.82 1.84 1.85 1.84 1.84 1.84
0.44 0.43 0.43 0.45 0.47 0.48 0.48 0.50 0.52 0.56 0.58 0.60 0.62 0.63 0.64 0.66 0.68 0.67 0.66 0.65 0.65 0.65 0.64 0.65 0.67 0.70 0.72 0.72 0.72 0.70 0.67 0.65 0.64 0.61 0.59 0.60 0.61 0.61 0.61 0.62 0.64 0.64 0.64 0.65 0.67 0.68 0.70 0.72 0.75 0.78 0.81 0.85 0.89 0.92 0.94 0.95 0.95 0.95 0.97 1.00 1.03 1.07 1.13 1.21 1.29 1.35 1.39 1.42 1.47 1.51 1.56 1.60 1.63 1.67 1.71 1.74 1.74 1.73 1.72 1.76 1.81 1.85 1.88 1.89 1.90
0.43 0.41 0.40 0.41 0.42 0.44 0.45 0.46 0.47 0.48 0.50 0.52 0.56 0.61 0.64 0.65 0.65 0.66 0.66 0.67 0.67 0.67 0.66 0.66 0.68 0.72 0.72 0.73 0.73 0.72 0.70 0.67 0.65 0.64 0.64 0.62 0.61 0.61 0.62 0.63 0.64 0.64 0.65 0.67 0.69 0.70 0.70 0.70 0.72 0.74 0.77 0.80 0.84 0.87 0.89 0.91 0.92 0.92 0.93 0.93 0.94 0.97 1.00 1.06 1.12 1.19 1.24 1.28 1.33 1.38 1.41 1.44 1.48 1.52 1.58 1.59 1.60 1.60 1.60 1.64 1.68 1.74 1.81 1.85 1.85
0.42 0.40 0.38 0.39 0.41 0.43 0.44 0.45 0.46 0.48 0.49 0.52 0.55 0.57 0.58 0.60 0.62 0.64 0.64 0.65 0.66 0.68 0.68 0.70 0.72 0.72 0.72 0.74 0.73 0.71 0.69 0.68 0.67 0.65 0.63 0.62 0.61 0.62 0.64 0.65 0.66 0.66 0.66 0.67 0.69 0.71 0.71 0.70 0.70 0.72 0.75 0.78 0.81 0.84 0.87 0.90 0.92 0.91 0.89 0.88 0.88 0.90 0.94 0.98 1.02 1.05 1.08 1.11 1.16 1.21 1.26 1.33 1.38 1.40 1.42 1.45 1.47 1.45 1.47 1.51 1.55 1.60 1.65 1.68 1.72
0.42 0.40 0.39 0.37 0.38 0.40 0.43 0.46 0.48 0.50 0.52 0.52 0.51 0.52 0.55 0.56 0.58 0.60 0.63 0.64 0.66 0.68 0.70 0.71 0.73 0.72 0.72 0.72 0.72 0.70 0.69 0.68 0.67 0.65 0.64 0.63 0.63 0.65 0.67 0.67 0.67 0.66 0.66 0.67 0.69 0.70 0.70 0.70 0.70 0.70 0.71 0.74 0.78 0.80 0.82 0.86 0.89 0.92 0.91 0.89 0.86 0.86 0.89 0.94 0.97 1.00 1.02 1.03 1.07 1.13 1.19 1.23 1.27 1.31 1.34 1.37 1.40 1.41 1.40 1.40 1.40 1.42 1.44 1.48 1.51
0.41 0.40 0.39 0.39 0.40 0.42 0.44 0.45 0.47 0.49 0.49 0.49 0.51 0.52 0.53 0.55 0.57 0.58 0.60 0.62 0.64 0.66 0.69 0.71 0.72 0.73 0.73 0.72 0.73 0.72 0.71 0.70 0.68 0.66 0.64 0.63 0.64 0.67 0.68 0.68 0.68 0.67 0.67 0.68 0.69 0.69 0.70 0.70 0.70 0.70 0.70 0.71 0.72 0.74 0.77 0.79 0.82 0.86 0.89 0.90 0.90 0.89 0.90 0.92 0.95 0.97 0.99 1.00 1.01 1.04 1.08 1.12 1.17 1.25 1.30 1.32 1.34 1.36 1.36 1.36 1.37 1.38 1.39 1.40 1.43
0.42 0.43 0.44 0.43 0.43 0.44 0.45 0.46 0.46 0.46 0.48 0.50 0.51 0.51 0.52 0.55 0.57 0.59 0.62 0.64 0.66 0.67 0.68 0.69 0.71 0.71 0.71 0.71 0.70 0.70 0.70 0.69 0.68 0.66 0.65 0.65 0.65 0.68 0.68 0.68 0.68 0.68 0.69 0.70 0.70 0.69 0.69 0.69 0.69 0.69 0.69 0.70 0.70 0.70 0.72 0.74 0.77 0.79 0.82 0.85 0.87 0.89 0.90 0.91 0.92 0.95 0.97 0.99 1.00 1.00 1.03 1.05 1.09 1.14 1.20 1.26 1.29 1.32 1.34 1.35 1.36 1.34 1.35 1.36 1.36
0.44 0.45 0.46 0.48 0.48 0.47 0.46 0.46 0.45 0.47 0.47 0.48 0.49 0.51 0.53 0.55 0.56 0.58 0.60 0.63 0.65 0.67 0.69 0.70 0.70 0.70 0.71 0.71 0.72 0.71 0.71 0.70 0.70 0.69 0.68 0.67 0.67 0.67 0.68 0.68 0.69 0.69 0.70 0.69 0.70 0.70 0.69 0.68 0.68 0.68 0.68 0.68 0.68 0.68 0.68 0.70 0.73 0.75 0.77 0.79 0.81 0.84 0.87 0.91 0.92 0.93 0.96 0.98 1.01 1.02 1.02 1.03 1.05 1.08 1.11 1.15 1.20 1.26 1.27 1.30 1.34 1.36 1.35 1.35 1.35
0.43 0.43 0.44 0.45 0.46 0.48 0.47 0.46 0.46 0.46 0.45 0.47 0.50 0.53 0.54 0.55 0.56 0.58 0.60 0.61 0.63 0.64 0.66 0.67 0.69 0.71 0.72 0.72 0.72 0.72 0.72 0.71 0.70 0.70 0.69 0.68 0.67 0.67 0.68 0.70 0.70 0.70 0.70 0.69 0.69 0.70 0.69 0.69 0.68 0.68 0.68 0.68 0.67 0.66 0.66 0.67 0.69 0.71 0.73 0.74 0.76 0.78 0.83 0.88 0.92 0.94 0.96 0.98 1.00 1.02 1.03 1.03 1.04 1.06 1.09 1.09 1.11 1.15 1.20 1.26 1.29 1.30 1.33 1.34 1.34
0.40 0.41 0.41 0.43 0.44 0.46 0.47 0.47 0.47 0.47 0.47 0.49 0.50 0.52 0.55 0.57 0.58 0.60 0.62 0.63 0.64 0.65 0.67 0.69 0.70 0.71 0.72 0.71 0.71 0.72 0.72 0.71 0.71 0.71 0.70 0.69 0.68 0.68 0.69 0.70 0.70 0.70 0.70 0.69 0.69 0.69 0.69 0.68 0.69 0.69 0.68 0.68 0.66 0.65 0.66 0.67 0.68 0.70 0.72 0.74 0.75 0.77 0.80 0.85 0.90 0.94 0.96 0.98 1.01 1.03 1.04 1.05 1.06 1.07 1.09 1.10 1.11 1.11 1.11 1.13 1.19 1.24 1.26 1.27 1.28
0.40 0.40 0.40 0.41 0.44 0.46 0.47 0.46 0.47 0.48 0.48 0.49 0.50 0.52 0.53 0.56 0.58 0.61 0.62 0.63 0.64 0.66 0.68 0.70 0.71 0.72 0.73 0.73 0.73 0.72 0.72 0.72 0.72 0.72 0.70 0.69 0.68 0.68 0.68 0.69 0.70 0.70 0.70 0.68 0.67 0.67 0.67 0.67 0.67 0.68 0.68 0.67 0.67 0.67 0.67 0.68 0.70 0.72 0.72 0.73 0.75 0.76 0.79 0.81 0.86 0.92 0.96 1.00 1.03 1.04 1.05 1.06 1.07 1.07 1.08 1.08 1.08 1.08 1.09 1.11 1.12 1.14 1.18 1.22 1.23
Wind_Speed
19 19 19 19 19 18 18 18 17 17 17 16 16 15 15 15 14 13 13 12 12 12 11 11 11 10 10 10 9 9 9 8 8 8 8 8 7 7 7 7 8 8 7 8 8 8 8 9 8 8 8 8 8 8 8 8 7 7 7 8 9 9 10 10 11 11 11 11 10 10 11 11 11 11 11 12 12 13 14 15 16 16 17 17 17
19 19 19 19 19 19 19 18 18 18 17 17 17 17 16 16 15 14 14 13 13 13 12 12 11 11 11 10 10 10 9 9 9 8 8 8 8 8 8 8 8 8 7 8 8 8 8 9 9 9 9 9 9 9 9 9 8 8 8 8 9 10 10 11 11 12 12 12 12 12 12 12 12 13 13 13 14 15 15 16 17 17 17 17 17
19 19 19 19 19 19 19 19 19 19 18 18 18 18 17 17 16 16 15 15 14 14 13 13 12 12 12 11 11 10 10 10 10 9 9 9 8 8 8 8 8 8 8 8 8 8 8 9 9 9 9 10 10 10 10 10 10 10 9 8 8 9 10 10 11 12 13 13 13 13 13 13 13 14 14 14 15 16 16 16 17 17 17 17 17
20 19 19 19 19 19 19 19 19 19 19 19 19 18 18 18 17 17 16 16 15 15 14 14 13 13 13 12 12 11 11 11 10 10 10 10 9 9 9 9 8 8 8 8 8 8 8 9 9 9 10 10 11 10 10 11 11 11 10 10 9 9 9 10 10 11 12 13 13 13 13 13 14 14 15 15 16 16 16 16 16 16 16 17 17
21 20 20 20 20 20 19 19 20 20 20 20 19 19 19 18 18 18 18 17 17 16 15 15 15 14 14 13 13 12 12 12 11 11 11 11 10 10 10 10 9 9 9 9 9 9 9 9 9 9 10 10 10 11 11 11 11 11 12 11 10 10 10 10 11 11 11 12 13 13 13 13 14 14 14 15 15 15 15 15 15 16 16 17 17
22 21 21 21 21 21 21 20 19 19 19 20 20 20 20 19 19 19 19 18 18 17 17 16 16 16 16 15 14 13 13 13 12 12 12 11 11 11 11 11 10 10 10 9 9 9 9 9 9 9 10 10 10 10 11 11 11 12 12 12 12 11 11 11 11 11 12 12 12 13 13 14 14 14 14 15 15 15 15 15 16 16 17 17 17
22 22 21 21 21 22 22 21 21 20 19 19 19 20 20 20 20 20 20 20 19 19 18 18 17 17 17 16 16 15 14 14 14 13 13 12 12 12 11 11 11 11 11 11 10 10 10 10 10 10 10 10 10 10 11 11 11 11 12 12 13 13 13 12 12 12 13 13 13 13 14 14 14 14 14 14 14 15 15 16 16 16 17 16 16
20 20 20 20 20 21 21 22 21 21 20 20 19 19 20 20 20 20 20 21 20 20 19 19 19 18 18 18 17 16 16 15 15 15 14 14 13 13 12 12 12 12 12 12 11 11 11 11 11 11 11 11 11 11 11 11 11 11 12 12 13 13 13 13 13 13 14 14 14 14 14 14 14 14 14 14 15 15 15 16 16 16 16 16 16
19 18 18 18 19 20 21 21 22 21 21 21 20 20 20 20 20 20 20 21 21 21 21 20 20 20 20 19 19 18 17 17 17 16 16 15 15 14 14 13 13 13 13 13 12 12 12 12 12 12 12 12 12 12 12 12 12 12 12 12 12 13 13 13 14 14 14 14 14 14 14 14 15 15 15 15 15 15 15 15 16 16 17 16 16
18 17 17 17 18 19 20 21 22 22 21 21 21 21 21 20 20 20 20 21 21 22 22 22 21 21 21 21 20 20 19 19 18 18 17 17 16 16 15 15 14 14 14 14 14 14 13 13 13 14 14 14 14 14 14 13 13 13 13 13 14 14 14 14 14 14 15 15 15 15 15 15 15 15 15 15 15 15 16 16 17 17 17 17 16
16 16 16 16 16 18 19 19 20 21 22 21 21 21 21 21 21 21 21 21 21 22 22 23 23 22 22 22 22 22 21 21 20 20 19 18 17 17 17 16 16 16 15 15 15 15 15 14 14 14 15 15 15 15 15 15 15 15 15 16 16 16 16 16 16 16 16 16 16 16 16 16 16 16 16 16 16 16 17 17 17 17 17 17 16
13 14 15 15 15 16 17 18 18 19 20 21 21 21 22 22 22 22 22 22 22 21 22 23 23 23 23 23 23 23 23 23 22 22 21 20 19 18 18 17 17 17 17 17 17 16 16 16 15 15 15 15 16 16 16 16 16 17 17 17 17 17 17 18 18 17 17 17 17 17 17 17 17 17 17 17 17 18 18 18 18 18 18 18 17
11 12 13 14 14 14 15 16 16 17 18 20 20 21 22 23 23 23 23 23 23 22 22 22 23 23 24 24 24 24 24 24 24 23 23 22 22 21 20 19 19 18 18 18 18 18 18 17 17 17 16 17 17 17 17 17 17 18 18 18 18 18 19 19 19 19 19 18 19 19 18 18 18 18 18 18 19 19 19 19 19 18 19 19 18
11 11 12 12 13 14 14 15 16 16 18 19 19 20 21 22 23 24 24 24 24 24 24 23 23 23 23 24 25 25 25 25 25 25 24 24 23 23 22 21 21 20 19 19 19 19 19 19 19 19 18 18 18 18 18 18 18 18 18 18 18 19 19 20 20 20 20 20 20 21 20 20 20 20 20 20 20 20 20 20 20 19 19 19 19
11 11 12 12 13 13 14 15 16 17 18 18 19 19 19 21 22 23 24 25 25 25 25 25 24 23 23 24 24 24 25 25 26 26 26 26 25 24 23 23 23 22 21 21 20 20 19 19 20 20 20 20 20 19 19 19 19 19 20 20 20 20 20 20 20 20 21 21 22 22 22 22 22 23 22 22 22 22 22 21 21 20 20 20 20
11 12 12 13 13 14 15 15 17 18 18 19 18 18 18 19 20 21 22 23 24 25 26 26 25 25 24 24 24 24 24 24 25 26 27 27 26 26 25 25 24 24 23 22 22 21 21 20 20 20 21 21 21 21 21 21 21 21 22 22 21 21 21 21 22 22 22 22 23 23 24 24 24 24 24 24 24 24 23 23 22 21 21 21 21
11 12 13 13 14 15 15 16 16 17 18 18 18 18 19 20 20 21 21 22 23 24 25 26 26 26 26 26 25 25 24 24 24 25 26 27 27 26 26 26 26 25 25 24 24 23 23 22 22 22 22 22 22 22 22 22 23 23 23 23 23 23 23 23 23 24 25 25 25 26 26 26 26 26 26 26 26 25 24 24 24 23 23 22 22
12 13 13 14 14 15 16 16 17 17 18 18 18 18 19 20 20 21 22 22 23 23 24 25 26 26 26 26 26 26 26 26 25 25 25 26 26 27 27 27 27 27 27 26 26 26 25 25 25 24 24 24 24 24 24 24 24 24 24 25 25 25 25 25 25 25 26 27 27 27 27 27 27 27 27 27 27 26 26 26 26 25 24 24 24
15 14 15 15 15 15 16 16 17 18 18 18 18 17 18 19 20 21 21 22 23 23 24 24 25 25 26 26 26 27 28 28 28 28 27 27 26 27 27 27 28 28 27 27 27 27 27 27 27 27 27 27 26 26 26 26 25 26 26 26 26 27 27 27 27 27 27 27 27 28 28 28 28 28 28 28 28 27 27 27 27 26 26 26 26
17 17 17 17 16 16 16 16 17 17 18 18 18 18 18 18 19 20 21 21 22 23 23 24 25 25 26 26 26 27 27 29 29 29 29 29 29 28 28 28 28 28 28 28 28 28 28 28 28 28 29 29 29 29 28 28 27 27 27 27 28 28 28 28 28 28 28 29 29 29 29 29 29 29 29 29 29 29 28 28 28 28 28 28 27
18 18 18 19 18 18 18 17 17 17 17 18 18 18 18 18 19 19 20 20 21 21 22 23 24 25 26 26 27 27 28 28 29 29 30 30 30 30 29 29 29 29 29 29 28 29 29 28 28 29 30 30 30 30 30 30 30 29 29 29 29 30 29 29 30 30 30 30 30 30 30 30 30 30 30 30 29 29 29 29 29 29 29 29 29
20 20 20 20 20 20 20 19 19 19 19 19 19 19 18 18 18 19 20 20 21 21 22 22 23 24 25 26 26 27 28 28 29 30 30 30 31 31 31 31 31 30 30 29 29 29 29 29 29 30 30 31 31 31 31 31 31 31 31 31 32 32 31 31 31 31 31 31 30 30 30 30 31 31 31 31 30 30 30 30 30 30 30 30 30
23 22 22 22 22 22 22 21 21 21 20 20 20 20 20 19 19 19 19 20 21 22 22 22 23 24 24 25 25 26 27 28 28 29 30 30 30 31 31 31 31 31 31 31 30 29 29 29 30 30 30 31 31 32 32 32 32 32 32 33 33 32 32 32 31 32 31 31 31 31 31 31 31 31 31 31 31 31 31 31 31 31 32 32 32
25 24 24 24 24 24 24 23 23 22 22 22 22 22 22 21 21 20 20 20 21 22 22 23 23 24 25 25 25 25 26 26 27 28 29 30 30 31 31 31 31 31 31 31 31 30 30 30 30 30 30 30 31 31 32 32 32 33 33 33 33 33 32 32 32 32 32 32 32 32 32 32 32 32 32 32 32 32 32 32 32 32 32 33 33
26 26 26 26 26 26 26 26 25 25 24 24 24 23 23 23 23 23 22 22 22 22 23 23 24 24 25 25 26 26 26 26 27 27 28 29 30 30 30 31 31 32 31 31 31 31 31 31 31 31 31 32 32 32 32 32 33 33 33 33 33 33 33 33 33 33 33 33 33 33 33 33 33 33 33 33 33 33 33 33 33 33 33 33 33
27 27 27 28 28 28 27 27 27 27 27 26 26 25 25 25 25 25 24 24 24 23 23 24 24 25 25 25 26 26 26 26 26 27 27 28 29 29 30 30 31 31 31 31 31 31 31 31 31 31 32 32 32 32 33 33 34 34 34 34 33 33 33 33 33 33 33 33 34 34 34 34 35 35 34 34 34 34 34 34 34 34 33 34 34
28 28 28 28 28 29 29 28 29 29 28 28 28 28 28 27 27 27 27 26 26 26 25 25 25 25 25 26 26 26 26 26 26 26 27 28 29 29 29 30 30 31 31 31 31 32 32 32 32 32 32 32 32 33 33 34 34 35 35 35 35 35 35 35 35 35 35 35 35 35 35 35 35 35 35 35 35 35 35 35 35 35 34 34 34
28 28 29 29 29 29 29 29 29 29 30 30 30 30 30 30 30 29 29 29 29 28 28 27 27 27 27 27 27 27 27 27 26 26 26 27 28 29 29 30 30 31 31 31 32 32 33 33 32 32 32 32 32 32 32 33 34 35 35 36 36 37 37 37 38 38 38 37 36 36 35 35 35 35 36 36 36 36 36 36 36 36 35 35 35
28 29 29 29 29 29 29 29 30 30 30 31 32 32 32 32 32 32 31 31 31 31 30 30 30 29 29 29 28 29 29 29 29 28 28 28 28 28 29 30 31 31 31 31 31 32 32 33 33 33 32 32 32 32 32 32 33 34 34 35 36 37 37 38 38 38 38 38 37 36 35 35 35 35 35 36 36 36 36 36 36 36 35 35 35
29 29 29 30 30 30 30 31 31 31 31 32 32 33 33 33 33 33 33 33 33 33 33 33 33 32 32 31 31 31 31 31 31 31 30 30 30 29 29 30 31 32 32 32 32 32 32 33 33 33 33 33 33 33 33 33 33 33 34 34 35 36 36 37 37 37 37 37 37 36 35 35 35 35 35 35 35 35 35 35 35 35 35 35 34
30 30 30 30 30 31 31 32 32 32 32 32 32 32 33 33 34 34 34 35 35 35 35 35 35 35 35 34 34 33 33 33 32 32 32 32 32 32 32 32 32 33 34 34 34 34 34 34 34 34 34 34 34 33 33 34 34 34 34 34 34 35 35 35 36 36 36 36 36 36 35 35 35 35 35 34 34 34 34 35 35 35 35 34 34
30 30 30 30 31 31 32 32 32 32 33 33 33 33 33 33 34 34 35 35 36 36 37 37 37 37 37 37 36 36 35 34 34 34 34 34 34 34 34 34 34 34 34 34 34 35 35 35 35 35 35 35 35 35 35 35 35 34 35 35 34 34 34 34 35 35 35 35 35 35 35 35 36 35 35 35 34 34 34 35 35 35 34 34 34
30 30 30 31 31 31 31 32 32 32 32 33 33 33 33 33 34 34 35 35 36 37 38 38 38 38 38 38 38 38 38 37 37 36 36 36 36 36 35 35 35 35 34 34 34 35 35 35 35 36 36 36 36 36 36 36 36 36 35 35 35 34 34 34 34 34 35 35 35 35 35 35 35 35 35 35 35 35 35 35 35 34 34 34 33
30 30 31 31 31 31 31 32 32 32 32 32 33 33 33 34 34 35 35 36 36 37 37 38 39 39 39 39 39 39 39 39 39 39 38 37 37 37 37 37 36 36 35 35 35 35 35 35 35 36 36 36 37 37 37 37 37 37 37 37 36 36 35 35 35 35 35 35 35 35 35 35 35 34 34 34 34 34 34 35 35 34 34 34 33
30 31 31 31 32 32 32 33 33 34 34 34 34 34 34 35 35 36 36 37 37 37 38 38 39 39 39 39 39 39 40 40 40 40 40 40 40 39 39 38 37 37 36 36 36 36 36 36 36 36 36 37 37 37 37 37 37 37 37 37 37 37 37 37 36 36 35 35 35 35 35 35 35 34 34 34 34 34 34 34 35 35 35 34 33
30 31 31 31 32 32 33 34 34 35 35 35 36 36 36 36 37 37 37 38 38 38 39 39 39 40 40 39 40 40 40 40 41 41 41 41 41 41 40 40 39 39 38 38 38 38 37 37 37 37 37 37 37 38 38 38 38 37 37 37 37 37 37 37 37 37 37 37 36 36 36 36 36 35 35 35 35 35 35 35 35 35 35 35 35
30 31 31 31 32 33 33 34 34 35 36 36 37 37 37 37 38 38 38 38 39 39 39 40 40 41 41 41 41 41 41 42 42 42 42 43 43 42 42 42 42 41 41 40 40 40 39 39 39 38 38 38 38 38 38 38 38 38 38 38 38 37 37 38 38 38 39 39 38 38 37 37 37 37 37 37 36 36 36 36 36 36 36 36 36
31 31 32 32 32 33 33 34 34 35 36 36 37 37 38 38 38 39 39 40 40 40 40 41 41 42 42 43 43 43 43 43 43 43 44 44 44 44 44 44 44 43 43 42 42 42 41 41 41 41 40 40 39 39 39 39 39 38 38 38 38 38 38 38 38 38 38 38 38 38 38 38 38 38 38 38 37 37 36 36 37 37 37 36 36
31 32 33 33 34 34 35 35 36 36 36 37 37 38 38 39 39 40 40 41 41 42 42 42 42 43 43 44 44 45 45 45 45 45 45 45 45 45 45 45 45 45 45 44 44 44 43 43 43 42 42 41 41 40 40 40 40 39 39 39 39 39 38 38 39 38 38 38 38 38 38 38 38 38 38 38 37 37 37 37 37 37 36 35 35
32 32 33 34 35 36 36 37 37 37 38 38 39 39 40 40 40 41 41 42 43 43 44 44 44 45 45 45 46 46 46 46 46 46 46 46 46 46 46 46 46 46 46 46 46 45 45 44 44 44 43 42 42 42 41 41 40 40 40 40 39 39 39 39 39 39 39 39 39 38 38 38 38 38 37 37 37 37 37 37 37 37 36 35 34
32 33 34 35 35 36 37 37 38 38 39 40 40 41 41 42 42 42 43 43 44 45 45 46 46 46 46 47 47 47 47 47 47 47 47 47 47 47 47 47 47 47 47 47 47 46 46 46 45 45 44 44 43 43 42 42 42 41 41 40 40 40 40 39 39 39 39 39 39 39 39 39 38 38 38 38 37 37 37 36 36 36 36 36 35
32 33 34 35 35 36 37 37 38 39 40 41 41 42 43 43 44 44 45 45 45 46 46 46 47 47 47 47 48 48 48 48 47 47 47 47 47 47 48 48 48 48 48 47 47 47 47 46 46 46 46 45 45 44 44 43 43 42 41 41 41 41 41 41 40 40 40 40 40 40 40 40 40 40 39 39 38 38 38 37 37 37 37 37 37
32 33 34 35 35 36 36 37 38 39 40 41 41 42 43 44 45 45 46 46 46 47 47 47 47 47 47 48 48 49 49 48 48 48 48 47 47 48 48 49 49 49 48 47 47 47 47 47 47 47 46 46 46 45 45 44 44 43 43 42 42 41 41 41 41 41 41 41 42 42 42 42 42 41 41 40 40 39 39 39 39 39 39 38 38
32 33 33 34 35 35 36 36 37 38 39 40 41 42 43 44 45 45 46 46 47 47 48 48 48 47 48 48 49 49 49 49 49 49 49 49 48 49 49 49 49 48 48 48 48 48 48 47 47 47 47 46 46 46 46 46 45 45 44 44 43 42 42 41 41 41 41 42 42 42 43 43 43 43 43 42 42 41 41 41 41 40 40 40 39
32 33 34 34 34 34 35 35 36 37 38 39 40 41 42 43 44 45 46 46 47 47 48 48 48 48 49 49 49 49 50 50 50 50 50 50 50 49 49 49 49 49 49 49 49 49 49 48 48 48 47 47 47 47 47 46 46 46 46 45 44 44 43 42 42 42 41 41 41 41 41 42 42 43 43 43 43 43 42 42 42 42 41 41 41
33 33 33 33 34 34 35 35 36 37 38 39 40 40 41 42 43 44 45 46 46 47 47 48 48 48 48 49 49 49 50 50 50 50 50 50 50 50 49 49 50 50 50 49 49 50 49 49 49 48 48 48 47 47 47 47 47 47 47 46 46 46 45 44 44 43 42 42 41 41 41 41 41 41 42 43 43 43 43 43 43 43 43 43 43
32 32 32 33 33 34 35 35 36 37 37 38 39 40 41 41 42 43 44 44 45 45 46 46 47 47 47 48 48 49 49 49 50 50 50 50 50 50 50 50 50 50 50 49 49 50 50 49 49 49 49 48 48 48 48 48 48 48 48 47 47 47 47 46 45 45 44 44 43 42 41 41 40 41 41 42 42 43 43 43 43 43 44 44 44
30 30 31 32 33 33 34 35 35 36 37 38 38 39 40 40 41 41 42 43 43 44 45 45 46 46 46 47 47 47 48 48 49 50 50 50 50 51 51 51 50 50 49 49 49 49 49 50 50 50 50 49 49 49 49 49 49 49 48 48 48 48 48 48 47 46 45 45 44 44 43 42 42 41 41 41 41 42 43 43 43 44 44 44 44
30 30 31 32 32 33 34 34 35 36 36 37 38 38 38 39 39 40 40 41 42 42 43 44 44 45 45 45 46 46 47 47 47 48 49 50 50 50 51 50 50 49 49 49 49 49 49 49 49 49 49 49 49 49 49 49 49 49 49 49 49 49 49 48 48 47 47 46 45 44 44 44 43 43 42 41 41 41 42 42 43 43 43 44 44
29 30 31 32 33 33 34 35 35 36 36 37 37 38 38 38 38 38 38 39 39 40 41 41 42 43 43 44 45 45 45 46 46 46 47 48 49 49 49 49 49 49 48 48 48 48 48 48 48 48 49 49 48 48 48 48 48 48 48 49 49 49 49 48 48 48 47 47 46 45 45 44 44 43 43 42 42 42 41 41 41 41 41 42 42
29 30 30 31 32 33 34 34 35 36 36 37 38 38 38 37 37 37 37 37 37 37 38 38 39 40 41 42 42 43 43 43 44 44 45 46 46 47 47 47 47 47 47 47 47 46 46 46 46 46 47 47 47 47 48 48 48 48 48 48 48 48 48 48 48 48 47 47 46 45 45 45 44 44 43 42 42 42 42 41 40 40 39 39 40
Wind_Direction
205 206 207 207 208 209 210 211 211 211 212 212 212 212 211 211 210 211 211 211 210 209 209 209 208 207 208 209 209 209 210 210 209 208 208 211 214 215 218 219 222 226 228 230 231 231 234 235 234 234 234 236 237 236 239 240 241 243 244 243 242 243 243 242 242 246 251 254 256 260 262 267 272 275 278 282 286 290 293 296 299 301 303 305 306
205 207 208 208 210 211 212 213 214 214 214 214 215 216 216 216 214 214 214 214 214 214 214 214 214 213 212 212 213 213 214 214 213 211 212 214 216 217 218 221 225 229 230 233 234 234 236 238 239 239 237 240 241 240 239 240 242 245 246 247 248 248 247 248 248 249 253 259 263 266 268 271 275 277 280 283 285 289 292 296 300 301 303 304 305
207 208 209 210 211 213 214 215 216 217 217 217 217 217 218 219 218 218 218 217 218 217 217 218 218 218 216 215 215 216 216 217 217 216 216 218 219 220 221 223 226 229 233 235 236 237 239 241 243 244 242 243 246 245 243 242 244 246 247 248 252 254 252 252 253 254 256 261 265 269 271 272 274 277 281 284 287 289 292 295 299 301 302 303 305
210 210 211 212 212 214 216 217 218 219 220 220 220 219 220 220 221 222 222 220 220 220 220 221 222 222 221 219 218 219 219 219 220 221 221 222 224 225 225 226 227 230 233 236 237 238 241 243 245 246 245 246 247 248 247 245 244 246 248 249 251 256 257 255 256 258 260 262 265 268 271 273 275 278 281 285 287 289 291 294 296 298 300 303 305
213 214 215 215 215 217 218 219 220 221 223 223 223 222 222 221 221 223 224 224 224 223 222 223 225 225 225 224 224 224 224 223 223 224 225 225 227 229 229 230 231 232 234 236 238 239 241 244 245 245 246 247 249 249 248 247 246 246 248 250 253 256 259 260 259 260 262 265 267 270 273 276 278 280 282 286 289 290 291 293 295 297 300 302 304
215 216 218 218 219 220 220 220 221 221 224 226 226 225 224 224 223 223 224 225 226 226 225 225 226 227 228 229 229 229 229 228 228 228 229 229 230 232 233 234 235 236 236 237 239 241 241 243 244 244 245 246 249 249 249 248 248 248 247 250 252 255 259 261 262 263 264 267 270 273 277 279 281 283 285 288 290 292 293 295 296 298 300 302 303
218 217 218 219 221 221 220 221 222 222 224 226 227 227 225 225 226 225 225 226 226 227 228 228 229 230 230 231 233 233 232 232 232 232 232 233 234 235 236 237 239 240 240 240 241 242 243 243 243 244 244 246 248 249 249 250 251 251 250 251 252 254 256 259 261 262 265 267 270 273 276 279 281 284 287 290 291 293 294 296 297 299 301 301 303
221 219 219 219 221 222 222 222 222 223 225 225 226 227 227 226 227 227 227 227 228 229 230 230 231 232 233 234 235 235 235 234 235 235 236 236 237 238 239 240 241 242 243 243 244 245 245 244 244 244 246 247 249 249 249 250 252 253 253 253 254 255 256 259 261 262 264 266 269 271 274 277 280 283 287 290 292 293 295 295 296 298 300 301 302
223 222 221 221 221 222 223 223 223 224 226 226 227 228 229 229 228 228 229 229 230 231 232 233 233 233 234 235 236 237 237 236 236 236 237 238 239 240 240 241 242 243 244 245 246 248 248 247 247 247 248 249 250 249 249 250 251 253 255 255 256 257 259 260 262 264 266 267 270 272 274 276 280 284 286 288 290 291 293 294 295 298 300 300 302
220 221 222 223 223 222 222 223 224 226 226 226 227 228 229 230 229 229 230 231 232 232 232 234 235 235 234 235 236 237 238 239 238 237 238 239 240 241 241 242 243 244 246 246 248 249 250 251 251 251 251 251 251 251 250 250 251 254 256 257 258 260 261 263 264 265 267 268 271 273 274 276 279 282 284 287 289 290 291 293 294 297 299 299 301
216 218 220 222 223 222 222 223 226 226 226 226 229 229 229 230 230 230 231 232 233 234 233 234 235 236 236 235 235 237 238 240 239 239 239 240 242 243 243 244 244 245 246 248 249 251 251 253 254 254 254 253 253 254 253 254 255 256 258 259 259 260 261 263 264 266 267 268 271 273 273 275 278 281 283 286 288 289 291 292 293 295 296 297 300
219 218 218 219 220 221 223 225 226 226 226 228 231 231 231 231 232 232 233 234 234 235 236 236 236 237 237 237 237 237 237 239 239 240 241 242 243 245 246 246 246 246 247 248 250 252 253 255 255 256 256 256 256 256 256 256 257 258 259 260 261 261 261 262 264 266 267 268 269 271 272 274 277 279 283 285 287 289 291 291 292 292 293 295 296
227 223 220 219 220 222 224 225 226 227 228 231 233 234 233 233 234 234 235 236 236 237 237 238 238 238 238 238 239 239 238 238 238 239 241 242 244 245 246 248 248 249 249 250 251 252 254 256 256 257 257 258 258 258 258 259 259 258 259 260 261 262 262 262 263 265 267 268 269 270 271 273 275 277 282 285 287 289 290 290 290 290 291 292 294
231 231 228 225 225 226 228 229 230 232 232 233 234 236 236 236 236 237 237 238 239 238 239 239 239 240 240 240 240 240 240 240 240 240 240 241 243 245 247 248 249 250 251 252 253 253 254 255 257 258 259 259 260 260 260 261 261 261 261 261 261 262 262 262 263 264 265 267 268 269 271 272 274 277 281 284 285 287 289 289 289 289 290 291 292
235 236 235 234 235 235 237 238 238 239 238 236 235 237 239 239 238 238 239 239 240 241 240 240 240 240 241 241 241 242 242 242 242 242 242 242 242 244 246 248 249 251 252 253 254 255 256 256 257 258 259 259 260 260 261 262 262 263 263 263 263 263 263 262 263 264 265 266 267 269 271 273 274 277 280 282 283 285 287 287 287 288 289 289 290
242 242 242 242 242 244 245 246 245 245 245 243 240 239 240 240 240 240 241 241 241 242 241 241 241 242 241 242 242 243 243 243 244 244 244 244 244 244 245 247 248 250 251 253 254 255 256 257 258 259 259 260 260 260 261 262 263 263 264 264 265 265 264 264 264 264 265 267 268 270 271 273 274 276 278 279 281 283 284 285 285 286 287 288 289
249 249 249 248 248 248 249 250 251 250 249 247 244 242 242 243 243 243 243 244 244 243 242 242 242 243 243 242 243 243 244 245 245 245 245 245 246 246 246 246 247 249 251 253 254 255 256 256 257 259 259 260 260 260 261 262 262 263 264 265 266 266 266 267 268 267 268 268 269 270 271 273 274 275 276 278 279 280 281 282 283 284 284 286 287
255 255 254 253 253 252 251 252 252 251 252 251 249 247 245 245 245 244 244 245 245 244 243 243 244 245 245 245 244 244 245 245 246 246 246 246 247 247 247 247 248 249 251 252 254 255 255 256 257 258 259 260 261 261 261 262 262 263 264 264 265 266 267 268 269 270 270 270 270 271 272 273 274 275 276 276 277 278 278 279 281 282 282 282 284
256 257 257 256 256 255 254 255 254 252 253 254 252 253 252 248 246 245 245 246 246 245 245 245 246 246 246 247 247 246 246 247 246 247 247 247 247 249 250 250 250 251 252 253 254 255 256 256 257 258 259 261 261 262 262 262 262 263 263 264 264 265 266 268 269 269 270 270 271 272 272 273 274 275 275 275 276 276 276 277 279 279 279 279 281
256 258 257 256 256 257 257 257 256 255 254 252 251 253 254 252 249 248 246 246 247 248 248 248 248 249 249 249 249 249 248 249 248 248 248 248 249 249 250 251 252 253 254 254 255 256 257 257 258 258 259 260 261 262 262 262 262 263 264 264 264 265 268 269 269 270 270 271 271 271 272 273 273 274 275 275 276 276 276 277 278 279 278 278 279
256 257 256 255 255 256 257 258 258 257 257 254 251 252 252 251 251 249 248 248 249 250 251 251 251 251 251 251 251 251 251 251 250 250 250 250 249 250 251 251 252 254 255 256 257 257 257 258 259 259 260 260 261 262 262 262 263 264 264 264 265 267 269 270 271 271 272 272 272 271 271 272 272 273 274 275 276 277 277 278 278 279 279 279 279
255 256 256 256 255 255 255 256 257 257 257 256 254 253 252 251 251 250 250 251 251 253 254 254 253 253 253 252 252 252 252 252 252 252 252 252 251 251 252 253 253 254 256 256 257 258 258 259 260 260 261 261 262 263 263 263 263 264 265 266 267 269 270 271 272 273 273 272 272 272 272 272 272 273 273 274 275 276 277 278 277 278 278 279 279
255 255 256 256 257 257 256 256 256 255 254 255 255 255 254 253 252 252 253 254 254 255 255 256 255 255 254 253 253 253 253 253 253 253 253 253 252 252 253 254 254 255 256 257 258 259 259 260 261 262 262 263 263 264 264 264 264 265 266 267 268 269 270 271 271 272 272 272 272 272 272 272 273 273 273 274 275 276 277 277 277 277 278 278 279
256 255 255 256 257 258 258 257 256 255 254 254 254 254 255 255 254 255 255 256 257 257 256 256 256 257 256 256 255 255 254 253 253 253 254 254 253 253 253 254 254 255 256 257 258 259 260 261 262 263 263 264 264 265 265 265 264 264 265 266 268 269 269 270 271 271 271 271 271 271 271 272 272 273 274 274 276 277 277 277 277 277 278 278 279
256 256 255 255 256 257 258 258 257 256 255 255 254 254 254 255 256 257 257 258 258 258 258 257 257 258 258 258 258 257 256 255 254 254 254 254 254 254 254 255 255 255 256 257 258 259 261 262 263 264 264 264 264 265 265 264 264 264 265 266 266 267 268 269 270 271 271 271 271 271 271 272 273 273 274 275 276 276 277 277 277 278 278 279 279
258 258 257 256 256 255 256 257 257 257 256 255 254 254 254 255 257 258 259 259 259 258 258 258 258 258 258 259 259 258 257 257 256 255 255 254 254 255 256 256 256 256 256 257 257 259 260 261 262 263 263 264 264 264 264 264 264 264 264 265 266 266 267 268 269 270 270 271 272 272 272 273 273 274 274 274 274 275 276 276 277 277 278 279 279
259 259 259 258 257 256 255 256 256 256 256 255 255 254 255 255 256 257 259 260 260 259 258 258 258 258 258 259 259 259 259 258 258 258 257 256 255 255 256 256 257 257 257 257 258 258 260 261 262 263 263 264 264 264 264 264 264 264 264 264 265 266 267 267 268 269 270 271 272 273 273 273 273 273 273 273 273 274 275 275 275 277 277 278 279
261 260 260 259 258 257 256 257 257 256 256 256 256 256 256 256 256 257 258 258 259 259 259 258 258 258 258 258 258 259 259 259 259 259 260 259 258 256 256 257 258 258 259 260 259 259 260 261 262 263 264 265 265 265 266 266 265 265 264 264 265 267 267 268 268 269 270 271 272 272 272 272 272 272 272 272 272 273 274 274 275 276 277 278 279
261 261 260 260 259 258 257 257 258 258 257 256 256 256 256 256 256 257 257 256 257 258 258 259 259 259 258 258 258 258 259 259 259 260 260 260 259 258 258 259 259 259 260 261 261 261 261 261 262 263 264 264 265 265 266 266 266 266 265 265 266 267 268 268 268 269 270 270 270 271 271 271 271 272 272 272 272 273 273 274 275 276 276 276 277
261 261 261 261 260 259 258 258 258 259 259 259 258 258 257 257 257 257 257 257 257 257 258 258 259 259 259 258 258 257 258 259 259 260 259 259 259 259 259 260 260 260 260 261 261 261 262 262 262 263 263 264 264 264 265 266 266 266 266 267 267 268 268 268 269 269 270 270 270 270 270 270 271 272 273 273 273 273 273 273 274 275 275 275 276
262 262 262 261 261 261 260 259 260 260 260 260 260 259 258 259 259 259 258 258 258 258 258 258 260 260 260 258 258 258 257 257 258 259 259 259 259 259 260 261 262 262 262 262 262 263 263 263 263 263 263 264 264 264 264 265 266 266 267 268 268 269 269 269 269 269 270 270 270 270 269 269 270 272 273 273 273 273 273 273 274 275 275 275 275
263 263 263 263 262 262 261 261 261 261 261 261 261 260 259 260 261 261 260 260 259 258 259 259 260 261 260 259 258 258 258 258 258 259 260 260 260 260 260 261 262 262 262 262 263 264 264 264 264 264 264 264 264 265 265 266 266 267 268 268 269 269 269 269 269 269 269 269 269 270 269 270 270 272 273 273 273 273 273 273 273 274 275 275 275
263 263 263 264 264 263 263 262 262 262 262 261 261 261 261 261 261 261 261 261 260 260 260 260 260 261 261 259 258 257 258 259 259 260 260 260 261 261 261 261 262 262 261 262 263 264 264 264 264 264 264 264 265 265 266 266 267 267 268 268 269 269 268 269 269 269 269 269 269 269 270 270 271 272 273 273 273 273 272 272 272 273 274 274 274
263 263 264 264 264 264 264 263 263 263 262 262 261 261 262 262 262 262 262 262 262 262 261 260 260 261 261 260 259 258 258 258 259 260 260 261 262 262 262 262 262 261 261 262 263 264 265 265 265 265 265 265 266 266 267 267 267 267 268 268 268 269 269 269 269 269 269 269 269 269 270 271 272 272 272 272 272 272 272 272 271 272 272 273 274
264 264 264 265 265 264 264 264 263 263 263 262 262 262 262 262 262 262 263 263 263 263 262 262 262 262 263 262 261 260 259 258 259 260 260 261 262 262 262 262 262 262 262 263 263 264 265 265 266 266 266 266 266 267 267 267 268 268 268 267 267 268 268 268 269 269 269 269 269 269 270 271 272 272 272 272 272 272 272 272 271 272 272 272 273
264 264 265 265 265 265 265 265 265 264 264 263 263 263 263 263 263 263 263 263 263 263 263 262 262 262 262 261 260 260 260 260 260 260 260 261 262 262 262 262 262 263 263 264 264 264 264 265 265 265 266 266 267 267 267 267 267 268 268 268 267 267 267 267 268 268 268 268 269 269 269 270 271 271 272 272 272 272 273 272 272 271 272 272 272
264 264 265 266 267 267 267 267 267 266 266 265 265 265 264 264 264 264 264 264 264 263 263 263 262 262 261 260 260 260 260 261 261 261 260 261 261 261 261 262 262 262 263 263 264 264 264 264 265 265 265 266 266 267 267 267 267 267 267 268 267 267 267 268 268 268 268 267 267 267 268 268 269 269 270 271 272 272 272 272 271 270 271 271 272
264 265 266 266 267 267 268 268 268 268 267 267 266 266 265 265 264 264 264 264 264 264 263 263 262 262 261 261 261 261 261 261 261 261 261 261 261 261 262 262 262 262 262 262 263 263 264 264 264 265 265 265 265 266 266 266 267 267 267 267 267 267 267 268 268 268 268 268 268 267 268 268 268 268 269 270 271 271 271 270 270 270 270 270 271
265 265 266 267 267 267 268 268 268 268 268 268 267 267 266 266 265 265 265 264 264 264 263 263 263 262 262 262 262 262 262 262 262 262 262 262 262 262 262 263 263 263 262 262 262 263 263 263 263 264 264 264 265 265 266 266 266 266 267 267 267 267 268 268 268 268 269 269 269 269 269 269 269 269 269 270 270 271 270 270 269 269 269 270 270
266 267 267 267 267 267 268 268 268 269 269 269 268 268 268 267 267 267 266 266 265 264 264 263 263 263 263 263 262 262 262 262 262 262 262 262 262 262 262 263 263 263 263 262 262 262 262 262 262 262 263 264 264 265 265 266 266 266 266 266 266 267 267 267 267 267 267 267 268 268 268 268 269 270 270 270 271 271 270 270 269 269 268 269 269
269 269 269 269 269 269 269 269 269 269 269 269 269 269 269 269 268 268 267 267 266 265 265 264 263 263 263 262 262 262 262 263 263 262 262 262 263 263 263 263 263 263 263 263 263 263 263 262 262 262 262 263 263 264 264 265 266 266 265 265 265 265 266 266 267 267 267 267 267 267 267 267 268 269 270 271 271 271 271 270 270 269 269 269 269
271 272 272 272 271 271 271 271 271 271 270 270 270 270 270 270 270 269 269 268 268 267 266 265 264 264 263 262 261 261 262 263 263 263 263 262 263 263 263 264 263 263 262 262 262 263 263 263 262 262 262 262 263 263 263 264 265 265 265 265 265 265 265 265 266 267 267 267 267 267 267 268 268 269 269 270 270 270 270 270 270 270 270 269 269
273 274 274 274 274 273 273 273 273 273 272 272 272 271 271 271 271 270 270 269 268 268 267 266 265 264 264 263 262 262 262 262 262 262 263 263 263 263 263 264 263 263 262 262 262 262 262 262 263 263 262 262 262 263 263 263 264 264 265 265 265 265 265 265 266 266 266 267 267 267 268 268 268 269 269 270 270 270 270 270 271 271 270 269 269
274 275 276 276 275 274 274 274 274 274 274 274 274 273 273 272 272 271 270 270 269 268 267 266 265 264 264 263 263 262 262 262 262 262 262 262 263 263 263 263 263 263 262 262 262 262 262 262 262 262 262 262 262 262 262 263 263 263 264 265 265 265 265 265 266 266 267 267 267 267 268 268 268 268 268 269 269 269 269 270 270 270 270 269 269
275 276 277 277 275 274 274 274 275 275 275 275 275 275 274 274 273 272 271 270 269 268 267 266 265 264 264 264 263 263 262 262 262 262 262 262 262 262 262 262 262 263 263 263 262 262 262 262 262 262 262 262 262 262 262 262 262 263 263 263 264 265 265 265 265 266 266 267 267 267 268 268 268 268 268 268 268 268 268 269 269 270 270 269 269
276 276 276 275 274 274 275 275 276 277 277 277 277 277 276 275 274 274 272 271 270 269 268 267 266 265 264 264 263 263 263 263 262 262 262 262 261 260 260 261 262 262 262 262 262 262 261 261 261 262 262 262 262 262 262 262 262 262 262 262 263 264 264 264 264 264 265 265 266 267 267 268 268 269 269 269 268 268 268 268 268 268 269 269 269
276 276 276 275 275 275 275 276 277 277 278 278 278 278 277 277 276 275 273 272 271 269 268 267 266 265 265 264 264 263 263 263 263 262 262 261 260 259 259 260 261 261 261 261 261 261 261 261 261 261 261 261 261 262 262 262 262 262 262 262 262 263 263 264 264 264 264 264 265 266 266 267 268 269 269 269 269 269 268 268 268 268 269 269 269
278 277 277 277 277 276 276 276 277 278 278 279 279 279 278 278 277 276 274 273 271 270 268 267 266 266 265 265 265 264 264 264 263 262 262 261 260 259 259 259 259 259 260 260 261 261 261 261 261 261 261 261 261 262 262 262 262 262 262 262 262 262 263 263 263 263 263 263 264 265 265 266 267 267 268 269 269 269 269 269 269 268 268 269 269
280 279 278 278 278 278 278 278 278 279 279 280 280 280 280 279 278 276 274 273 272 270 269 267 266 266 266 266 266 266 265 264 264 263 261 260 259 258 258 258 258 258 259 259 260 260 260 260 260 260 260 260 261 261 262 262 262 262 262 262 262 263 263 263 263 262 262 262 263 264 264 265 266 266 266 267 268 268 269 269 269 269 269 269 269
281 281 280 279 278 279 279 279 279 279 280 280 280 281 281 280 279 277 276 274 273 271 269 268 266 266 266 266 266 266 265 265 264 263 262 260 259 258 257 257 257 257 257 258 259 260 260 260 260 260 259 259 259 260 260 261 261 261 262 262 263 263 263 263 262 262 262 261 262 262 263 264 264 265 265 266 267 267 268 268 269 269 269 268 268
283 282 282 281 280 280 279 279 279 279 280 280 280 280 280 279 278 277 276 275 274 272 270 268 267 266 266 266 266 266 265 265 264 263 262 261 259 258 257 256 256 256 257 258 258 259 259 260 259 259 259 259 259 259 259 259 260 261 262 262 263 263 263 263 262 262 261 261 261 261 262 263 263 264 265 266 266 267 267 268 268 269 269 269 268